Regional Weather Roundup
Issued by NWS Memphis, TN

Home | Current Version | Previous Version | Text Only | Print | Product List | Glossary On
Versions: 1 2 3 4 5 6 7 8 9 10 11 12 13 14 15 16 17 18 19 20 21 22 23 24 25 26 27 28 29 30 31 32 33 34 35 36 37 38 39 40 41 42 43 44 45 46 47 48 49 50
000
ASUS44 KMEG 302310
RWRMEG
MEMPHIS CWA HOURLY WEATHER ROUNDUP
NATIONAL WEATHER SERVICE MEMPHIS TN
600 PM CDT WED JUL 30 2014

...WEST TENNESSEE...

CITY           SKY/WX    TMP DP  RH WIND       PRES   REMARKS
MEMPHIS INTL   CLOUDY    80  57  45 W7        30.07F
NWS MEMPHIS      N/A     80 N/A N/A MISG        N/A
JACKSON        PTSUNNY   79  58  48 W3        30.07F
LEXINGTON      SUNNY     77  61  57 CALM      30.07F
SAVANNAH       PTSUNNY   80  59  48 NE5       30.08F
DYERSBURG      CLOUDY    79  55  44 W3        30.08F
UNION CITY     PTSUNNY   75  61  60 CALM      30.07S
PARIS          PTSUNNY   74  58  57 W3        30.09F


...EASTERN ARKANSAS...

CITY           SKY/WX    TMP DP  RH WIND       PRES   REMARKS
JONESBORO      CLOUDY    76  62  62 W9        30.07S
WEST MEMPHIS   CLOUDY    77  66  68 SW3       30.05F
BATESVILLE     CLOUDY    70  66  88 CALM      30.08F
NEWPORT        CLOUDY    76  65  68 W6        30.08F
WALNUT RIDGE   CLOUDY    75  61  60 SW10      30.07F
BLYTHEVILLE    CLOUDY    78  62  57 W3        30.07F
SEARCY         LGT RAIN  71  66  84 W3        30.10F
STUTTGART      CLOUDY    77  64  65 W10       30.09S
PINE BLUFF     LGT RAIN  73  67  81 NW3       30.09F
MONTICELLO     LGT RAIN  76  67  73 CALM      30.08S


...NORTH MISSISSIPPI...

CITY           SKY/WX    TMP DP  RH WIND       PRES   REMARKS
TUPELO         PTSUNNY   79  58  48 N6        30.06F
OLIVE BRANCH   CLOUDY    77  63  61 S5        30.07F
CLARKSDALE     CLOUDY    81  64  57 CALM      30.08S
CORINTH        PTSUNNY   79  57  47 N6        30.07S
GRENADA        CLOUDY    77  59  53 N6        30.07S
GREENWOOD      CLOUDY    80  62  54 N5        30.07S
COLUMBUS       MOSUNNY   80  58  47 N8        30.06S
STARKVILLE     FAIR      79  57  47 N5        30.06F
GOLDEN TRIANGL SUNNY     84  59  42 N7        30.07S


...SOUTHEAST MISSOURI...

CITY           SKY/WX    TMP DP  RH WIND       PRES   REMARKS
WEST PLAINS    CLOUDY    69  64  84 W3        30.11S
POPLAR BLUFF   CLOUDY    76  62  62 SW5       30.06F
CAPE GIRARDEAU CLOUDY    76  63  64 SW3       30.07F


...NORTHWEST ALABAMA...

CITY           SKY/WX    TMP DP  RH WIND       PRES   REMARKS
MUSCLE SHOALS  SUNNY     81  57  43 N6        30.08S


...MIDDLE TENNESSEE...

CITY           SKY/WX    TMP DP  RH WIND       PRES   REMARKS
NASHVILLE      CLOUDY    79  55  43 N7        30.07F
CLARKSVILLE    PTSUNNY   79  54  41 W7        30.07F
DICKSON        PTSUNNY   75  55  50 N5        30.09S
COLUMBIA       SUNNY     79  57  47 CALM      30.07F
LEWISBURG      CLOUDY    78  58  50 N3        30.08S


...WESTERN KENTUCKY...

CITY           SKY/WX    TMP DP  RH WIND       PRES   REMARKS
PADUCAH        CLOUDY    79  61  53 W3        30.07F
FORT CAMPBELL  PTSUNNY   80  52  38 W8        30.07F


...CENTRAL ARKANSAS...

CITY           SKY/WX    TMP DP  RH WIND       PRES   REMARKS
LITTLE ROCK    LGT RAIN  72  64  76 N5        30.10S


SKY/WX REPORTED AS FAIR MEANS FEW OR NO CLOUDS BELOW
12 THOUSAND FEET.




USA.gov is the U.S. government's official web portal to all federal, state and local government web resources and services.